User: anonymous   Login
Location: Aalen
(48.8330°N, 10.1000°E)
Time: 08:43:16
(UTC+02:00)
Language:

Tiros 1 - Orbit

View from above orbital plane
View from above orbital plane
View from above satellite
View from above satellite

Ground track
Ground track

The orbit data is extracted from the following two-line orbital elements,

1    29U 60002B   21211.64312779 -.00000096  00000-0  16682-4 0  9998
2    29  48.3783 182.1244 0023921 180.5400 179.5490 14.74442323278896
Epoch (UTC): 30 July 2021 15:26:06
Eccentricity: 0.0023921
inclination: 48.3783°
perigee height: 630 km
apogee height: 664 km
right ascension of ascending node: 182.1244°
argument of perigee: 180.5400°
revolutions per day: 14.74442323
mean anomaly at epoch: 179.5490°
orbit number at epoch: 27889

The dashed part of the orbit path shows where the satellite is in the earth's shadow,  

DLR